Wind_Speed
11 11 12 12 11 11 11 11 11 11 11 11 10 10 10 9 9 9 8 8 7 7 6 6 6 5 5 6 5 5 5 5 5 5 5 5 5 5 4 5 4 4 3
13 13 13 13 13 13 13 13 13 13 13 13 13 12 12 11 10 10 9 9 8 8 7 7 7 6 6 6 6 6 6 6 6 5 6 6 6 6 5 5 5 4 4
14 14 14 14 14 14 14 14 15 15 15 15 14 13 13 12 12 11 10 10 9 9 9 9 8 8 8 8 7 7 6 6 7 7 6 6 6 7 6 5 5 5 4
15 15 16 16 15 15 15 15 15 16 16 16 16 15 15 14 13 13 12 12 11 11 11 10 10 9 9 9 9 8 8 7 7 7 7 7 7 7 7 7 6 6 5
17 17 17 17 17 16 16 16 16 16 17 17 17 17 16 16 15 15 14 14 13 13 13 12 12 11 11 10 10 10 10 9 9 8 8 8 8 8 8 8 8 7 6
18 18 18 18 17 17 17 17 17 17 17 17 18 18 18 18 17 17 16 15 15 15 15 14 13 13 12 12 11 11 11 11 10 10 10 9 9 9 9 10 9 8 8
19 20 19 19 19 19 19 19 18 19 19 18 18 19 19 19 19 18 18 17 17 16 16 16 15 15 14 14 13 12 12 12 12 11 11 11 11 10 10 11 11 10 10
21 21 21 21 21 20 20 21 20 20 20 20 20 20 20 20 20 20 20 19 18 18 18 18 17 17 16 16 16 15 14 14 14 13 13 13 12 12 11 11 12 12 12
22 22 22 22 22 22 22 22 23 22 22 22 21 21 20 20 21 21 21 20 20 19 19 19 19 18 18 17 17 17 16 16 16 15 15 14 14 14 13 12 12 13 13
24 24 24 24 24 24 24 24 24 24 24 24 23 22 22 22 22 22 22 21 21 21 21 21 20 20 19 19 19 19 19 18 18 18 17 17 16 16 15 14 14 13 14
25 25 25 25 26 26 26 26 26 25 25 25 25 24 24 24 24 24 24 23 23 23 23 23 22 22 22 21 20 20 20 20 20 20 20 19 19 18 17 16 16 15 15
26 26 27 27 27 27 27 27 27 27 27 27 28 27 26 26 26 26 26 25 25 25 25 24 24 24 24 23 23 22 22 22 22 22 21 21 21 20 20 19 18 17 17
28 28 28 28 28 28 28 28 29 29 29 29 30 29 29 29 28 28 28 28 27 27 27 27 27 26 26 26 26 25 24 24 24 24 23 23 23 22 22 21 21 20 19
30 30 30 30 30 30 30 30 31 31 31 31 32 31 31 31 30 30 30 30 30 29 29 29 29 29 28 28 28 28 27 26 26 26 26 25 25 25 24 24 23 22 21
32 32 32 32 32 32 32 32 33 33 33 33 33 33 33 32 31 32 32 32 32 32 32 32 31 31 31 30 30 30 30 30 30 29 29 28 27 26 25 25 25 25 23
33 34 34 34 34 34 34 34 35 35 35 35 35 35 35 35 34 34 34 34 34 34 34 34 34 33 33 33 32 33 32 31 31 31 31 30 30 28 27 26 25 25 25
35 35 35 36 37 37 37 37 37 37 37 37 37 37 37 37 37 36 35 36 36 36 36 36 35 35 35 34 34 34 33 32 32 32 32 32 31 31 30 29 28 26 26
38 38 37 38 38 38 39 38 39 38 39 39 39 39 39 39 39 39 38 38 38 38 37 38 37 36 36 35 35 34 34 33 33 33 33 33 33 32 32 31 30 29 28
40 40 40 40 40 40 40 40 40 40 41 41 40 40 40 40 40 40 40 40 40 39 39 39 38 37 37 36 35 35 34 34 34 34 34 34 34 33 33 33 32 31 31
42 42 42 42 42 42 41 41 42 42 42 42 42 41 41 42 42 42 42 42 42 41 41 41 40 38 37 36 35 35 35 35 35 35 35 35 35 35 34 34 34 33 33
44 44 44 44 43 43 43 43 43 43 43 43 43 43 43 44 44 44 43 42 42 41 41 40 40 39 37 37 37 36 35 35 36 36 36 35 36 36 36 36 35 35 35
46 46 46 45 45 45 45 45 45 45 45 45 44 44 44 44 44 45 44 43 43 42 41 40 40 39 38 38 38 37 36 36 36 37 37 37 37 37 37 37 37 37 36
47 47 47 46 46 47 47 47 47 47 47 46 46 45 45 45 44 45 45 45 44 43 42 41 40 40 40 40 40 40 39 37 37 37 38 38 38 38 38 38 38 38 38
49 48 48 48 48 48 48 48 48 48 48 48 47 47 46 46 46 46 47 46 45 44 43 42 42 42 42 42 42 42 41 39 39 38 39 40 40 40 40 40 40 40 40
49 49 49 49 49 49 49 48 48 48 49 49 48 48 48 48 48 47 47 47 46 46 45 45 44 44 44 44 43 43 42 41 39 39 39 40 41 41 42 42 42 41 41
48 49 49 49 50 50 49 49 49 49 49 49 48 48 48 48 49 48 48 48 47 47 46 47 46 46 46 45 45 44 43 42 41 41 41 41 41 42 42 43 43 43 43
Wind_Direction
252 253 253 253 254 257 260 261 261 261 260 261 261 262 262 263 263 265 264 264 263 258 258 257 252 250 250 246 243 241 236 232 226 222 217 219 219 214 214 203 198 203 206
252 255 256 255 253 255 258 260 261 261 259 259 260 260 260 260 262 263 264 261 262 260 258 256 254 251 250 250 251 250 242 235 231 232 229 229 229 228 223 215 211 214 223
252 254 256 256 254 254 257 259 260 260 258 256 256 257 257 257 258 260 264 261 259 258 257 255 255 253 251 251 252 252 250 245 241 239 239 239 237 236 232 226 225 228 230
256 256 257 257 257 257 257 259 260 258 256 254 253 253 253 254 255 256 259 260 258 257 257 255 254 254 254 251 250 251 252 248 247 246 243 243 241 237 237 237 231 230 231
259 259 258 258 259 259 258 259 260 258 255 254 253 252 252 252 253 254 257 259 257 256 257 256 255 253 254 251 251 251 250 250 250 249 247 245 244 241 239 240 236 234 235
260 259 257 258 259 260 259 258 259 258 256 256 254 254 252 252 252 253 255 258 256 254 255 255 254 253 252 253 252 251 252 250 249 250 250 247 248 246 243 241 242 239 237
260 259 258 258 259 260 260 260 259 258 258 258 257 257 255 253 251 252 253 256 256 254 254 255 255 253 253 253 252 251 250 251 250 250 250 249 249 248 245 242 245 246 242
260 261 260 259 259 260 261 260 260 259 258 258 258 258 258 255 252 253 254 256 255 253 253 253 254 254 254 254 253 252 252 252 252 252 252 251 249 249 248 246 246 248 248
261 260 261 261 260 260 260 260 260 258 258 258 258 258 258 256 253 253 254 256 255 253 253 254 254 254 254 255 254 253 253 253 252 252 253 253 251 249 249 249 250 250 252
261 261 260 261 261 261 260 260 259 258 258 258 259 259 258 256 255 254 254 256 256 253 253 254 254 254 254 255 255 254 254 254 253 253 253 254 253 251 251 251 251 251 251
261 261 261 262 262 262 261 260 260 259 259 258 259 259 258 257 255 254 253 255 256 253 253 253 254 255 255 255 255 256 255 254 253 253 253 254 252 252 252 252 251 251 249
261 262 263 263 262 262 262 261 260 259 258 259 259 260 258 257 256 254 253 254 255 254 253 254 254 254 256 255 255 256 256 255 253 252 253 253 252 252 252 252 251 251 249
262 263 263 263 262 261 261 261 260 259 259 259 258 258 258 257 257 256 255 253 254 254 254 254 254 255 256 255 256 257 256 255 254 252 252 251 251 252 252 251 251 251 250
262 263 263 262 262 262 261 261 261 260 259 258 258 258 258 258 258 257 256 253 254 254 255 255 255 255 256 255 255 256 256 256 256 254 252 251 251 250 250 251 251 251 251
261 262 262 262 262 262 261 261 262 261 260 258 258 257 258 258 257 257 256 254 254 255 255 255 256 257 257 256 256 256 257 257 257 255 253 251 250 249 249 250 250 250 251
262 262 262 261 261 261 261 262 261 261 261 259 257 257 257 257 256 257 257 257 256 256 256 256 257 258 258 257 257 258 258 257 256 253 251 250 250 249 248 248 251 251 251
262 262 262 261 260 260 261 261 260 260 260 259 258 257 256 256 256 257 257 258 257 257 257 257 257 258 258 258 258 258 257 256 254 252 250 249 249 248 247 247 249 251 251
261 262 262 262 260 260 260 260 260 260 259 259 258 257 256 256 256 257 258 258 258 258 258 259 259 257 257 257 257 256 256 255 252 251 249 248 248 248 247 246 247 249 250
262 262 262 262 261 260 260 260 260 260 260 260 259 258 258 257 256 257 257 259 259 259 259 259 258 257 256 256 256 257 256 254 252 250 248 248 248 248 247 246 246 247 249
261 261 261 262 261 260 260 260 259 259 259 260 259 259 258 257 257 257 258 259 260 260 259 258 258 257 256 256 256 256 254 252 250 249 248 248 248 247 247 246 246 247 248
262 261 261 261 262 261 260 260 259 259 258 258 259 259 259 258 257 258 258 259 259 259 258 258 258 257 255 254 254 254 253 252 249 247 247 248 248 247 247 246 246 246 248
261 262 261 261 262 261 260 260 259 258 258 258 259 259 260 260 259 259 259 259 259 259 258 258 257 256 255 254 253 253 253 253 251 249 248 247 247 247 246 246 246 247 248
261 261 261 261 261 260 260 260 259 258 257 258 258 259 259 259 259 259 258 257 258 258 257 256 256 256 255 254 254 253 252 253 250 250 249 247 247 247 247 246 247 247 248
262 262 261 261 261 260 260 260 260 258 257 257 257 258 259 259 259 258 257 256 256 256 256 255 256 256 255 254 254 253 252 252 250 249 249 248 247 247 248 247 247 248 249
262 262 261 261 261 260 259 260 259 258 257 257 257 258 259 259 258 258 256 256 255 255 255 255 255 256 255 253 254 254 253 253 252 251 248 248 248 248 248 248 248 249 249
262 262 261 261 261 260 259 259 259 258 257 257 257 258 258 258 257 257 255 255 255 255 255 254 255 256 255 254 254 254 253 253 254 254 251 248 248 249 249 249 249 250 250
Height
5842 5843 5843 5843 5844 5844 5844 5845 5845 5846 5846 5846 5847 5847 5847 5847 5847 5847 5847 5847 5847 5847 5848 5848 5847 5847 5847 5847 5847 5847 5847 5847 5847 5847 5847 5847 5847 5847 5847 5847 5847 5848 5848
5840 5840 5841 5841 5841 5842 5842 5842 5843 5843 5844 5844 5845 5845 5845 5845 5845 5846 5846 5846 5846 5846 5846 5846 5846 5846 5846 5846 5846 5846 5846 5846 5846 5846 5846 5847 5847 5847 5847 5847 5847 5847 5847
5837 5838 5838 5838 5839 5839 5840 5840 5840 5840 5841 5842 5842 5842 5843 5843 5843 5844 5844 5844 5844 5844 5845 5845 5845 5845 5845 5845 5845 5845 5845 5845 5845 5845 5846 5846 5846 5846 5846 5846 5847 5847 5847
5834 5835 5835 5835 5836 5836 5836 5837 5837 5837 5838 5838 5839 5840 5840 5841 5841 5841 5842 5842 5842 5843 5843 5843 5843 5843 5843 5843 5843 5843 5844 5844 5844 5844 5845 5845 5845 5845 5845 5845 5846 5846 5846
5831 5831 5831 5832 5832 5833 5833 5833 5833 5834 5834 5835 5836 5836 5837 5838 5838 5839 5839 5840 5840 5840 5841 5841 5841 5841 5841 5842 5842 5842 5842 5842 5843 5843 5843 5844 5844 5844 5844 5844 5845 5845 5845
5827 5827 5827 5828 5828 5829 5829 5830 5830 5830 5831 5831 5832 5833 5834 5835 5835 5836 5836 5837 5837 5838 5838 5838 5839 5839 5839 5840 5840 5840 5840 5841 5841 5841 5842 5842 5842 5843 5843 5843 5843 5844 5844
5823 5823 5823 5824 5824 5825 5825 5826 5826 5827 5827 5828 5828 5829 5830 5831 5832 5832 5833 5834 5834 5835 5835 5835 5836 5836 5837 5837 5837 5838 5838 5838 5839 5839 5840 5840 5841 5841 5841 5842 5842 5842 5842
5818 5818 5819 5819 5820 5820 5821 5821 5822 5823 5823 5824 5825 5825 5826 5827 5828 5829 5829 5830 5830 5831 5832 5832 5832 5833 5833 5834 5834 5835 5835 5836 5836 5837 5837 5838 5838 5839 5839 5839 5840 5840 5840
5813 5814 5814 5814 5815 5816 5816 5817 5817 5818 5819 5820 5820 5821 5822 5822 5823 5824 5825 5826 5826 5827 5828 5828 5829 5829 5830 5830 5831 5831 5832 5833 5833 5834 5835 5835 5836 5836 5836 5837 5837 5838 5838
5808 5808 5809 5809 5810 5810 5811 5811 5812 5813 5814 5815 5815 5816 5817 5818 5819 5820 5820 5821 5822 5822 5823 5824 5825 5825 5826 5826 5827 5828 5828 5829 5830 5831 5832 5832 5833 5833 5834 5834 5835 5835 5836
5802 5803 5804 5804 5804 5805 5805 5806 5807 5807 5808 5809 5810 5811 5812 5813 5814 5815 5815 5816 5817 5818 5818 5819 5820 5820 5821 5822 5822 5823 5824 5825 5825 5826 5827 5828 5829 5830 5830 5831 5831 5832 5833
5796 5797 5797 5798 5798 5799 5799 5800 5800 5801 5802 5803 5804 5805 5807 5807 5808 5809 5810 5811 5811 5812 5813 5814 5815 5815 5816 5817 5818 5818 5819 5820 5821 5822 5823 5824 5825 5826 5827 5827 5828 5829 5829
5790 5790 5791 5791 5792 5792 5793 5793 5794 5795 5796 5797 5798 5799 5800 5801 5802 5803 5804 5804 5805 5806 5807 5808 5809 5809 5810 5811 5812 5812 5813 5814 5815 5816 5817 5818 5820 5821 5822 5823 5824 5825 5826
5783 5784 5784 5784 5785 5785 5786 5787 5787 5788 5789 5790 5791 5792 5793 5794 5795 5796 5797 5798 5798 5799 5800 5801 5802 5802 5803 5804 5805 5806 5807 5808 5809 5810 5811 5812 5814 5815 5817 5818 5819 5820 5822
5775 5776 5776 5777 5777 5778 5778 5779 5780 5780 5781 5782 5783 5784 5785 5787 5788 5789 5789 5790 5791 5792 5793 5793 5794 5795 5796 5797 5798 5799 5800 5801 5801 5802 5804 5805 5807 5809 5811 5812 5814 5815 5817
5767 5767 5767 5768 5769 5769 5770 5771 5771 5772 5772 5773 5774 5775 5776 5778 5779 5780 5781 5782 5783 5783 5784 5785 5786 5787 5788 5789 5789 5790 5791 5792 5793 5794 5796 5798 5800 5802 5804 5806 5807 5809 5811
5758 5758 5759 5759 5760 5760 5761 5762 5762 5763 5763 5764 5765 5766 5767 5769 5770 5771 5772 5773 5774 5774 5775 5776 5777 5778 5778 5779 5780 5781 5781 5782 5783 5785 5787 5789 5792 5794 5797 5799 5801 5803 5805
5748 5749 5749 5750 5750 5751 5751 5752 5753 5753 5754 5755 5755 5756 5758 5759 5760 5762 5763 5764 5764 5765 5766 5766 5767 5768 5769 5770 5771 5771 5772 5773 5774 5776 5778 5781 5783 5786 5789 5792 5794 5796 5799
5738 5739 5739 5740 5740 5741 5741 5742 5742 5743 5743 5744 5746 5747 5748 5749 5750 5752 5753 5754 5754 5755 5756 5756 5757 5758 5759 5760 5761 5761 5762 5763 5764 5767 5769 5772 5775 5777 5781 5784 5787 5789 5792
5728 5728 5729 5729 5729 5730 5730 5731 5732 5732 5733 5734 5735 5736 5737 5739 5740 5741 5743 5743 5744 5745 5745 5746 5747 5748 5749 5750 5751 5751 5752 5753 5754 5757 5760 5763 5766 5769 5772 5775 5779 5782 5784
5716 5716 5717 5718 5718 5718 5719 5720 5721 5721 5722 5723 5724 5726 5727 5727 5728 5730 5731 5732 5733 5734 5735 5736 5737 5738 5739 5739 5741 5742 5743 5743 5745 5747 5750 5753 5756 5760 5763 5766 5770 5773 5776
5703 5704 5705 5705 5706 5706 5707 5708 5708 5709 5711 5712 5713 5714 5715 5715 5717 5718 5720 5721 5722 5723 5724 5725 5726 5727 5728 5729 5731 5732 5733 5735 5736 5738 5740 5744 5747 5750 5753 5757 5760 5764 5767
5690 5691 5691 5692 5693 5694 5694 5695 5696 5697 5698 5700 5701 5702 5703 5704 5705 5706 5708 5710 5711 5712 5714 5715 5716 5717 5718 5719 5720 5722 5724 5726 5727 5729 5731 5734 5737 5741 5744 5747 5751 5754 5757
5676 5677 5678 5679 5680 5680 5681 5681 5682 5684 5685 5687 5688 5690 5691 5692 5693 5694 5696 5698 5699 5701 5702 5704 5705 5706 5708 5709 5710 5711 5713 5715 5718 5720 5722 5724 5727 5731 5734 5737 5741 5744 5747
5662 5663 5664 5664 5665 5666 5667 5668 5668 5669 5671 5673 5675 5676 5678 5679 5680 5681 5683 5685 5687 5689 5690 5692 5694 5695 5696 5698 5699 5700 5702 5705 5707 5710 5713 5716 5718 5721 5724 5727 5730 5733 5736
5648 5648 5649 5650 5651 5651 5653 5654 5655 5656 5658 5660 5661 5663 5664 5665 5667 5668 5670 5672 5674 5676 5678 5680 5682 5683 5685 5686 5688 5689 5691 5694 5696 5698 5702 5706 5708 5711 5714 5716 5719 5722 5725